Location: Newark
(52.4787°S, 179.0532°W)
Time: 18:09:53
(UTC+00:00)

Transit 2A Rocket - Pass Details

Date: 23 November 2019
Orbit: 594 x 909 km, 66.7° (Epoch: 08 December)

Event Time Altitude Azimuth Distance (km) Brightness Sun altitude
Rises 22:16:41 0° 293° (WNW) 3,406 8.3 53.9°
Reaches altitude 10° 22:19:14 10° 285° (WNW) 2,515 7.7 54.1°
Maximum altitude 22:24:48 41° 215° (SW) 1,282 6.3 54.6°
Drops below altitude 10° 22:30:37 10° 145° (SE) 2,627 7.7 55.0°
Sets 22:33:21 0° 138° (SE) 3,573 8.3 55.3°
